| time (UTC) | temp C | wind direction | speed KPH | gust KPH | rain 1hr cm | rain 24hr cm | rain mn cm | humidity % | barometer mb |
| 20260507201503 | 8 | 229 | 9.7 | 16.1 | 0.00 | 2.06 | 2.06 | 97 | 1004.0 |
| 20260507200004 | 8 | 225 | 11.3 | 16.1 | 0.00 | 2.06 | 2.06 | 97 | 1004.0 |
| 20260507194510 | 8 | 225 | 11.3 | 17.7 | 0.00 | 2.06 | 2.06 | 97 | 1004.1 |
| 20260507193012 | 8 | 234 | 9.7 | 16.1 | 0.00 | 2.06 | 2.06 | 98 | 1004.3 |
| 20260507191528 | 8 | 231 | 11.3 | 14.5 | 0.00 | 2.06 | 2.06 | 99 | 1004.5 |
| 20260507190023 | 7 | 241 | 11.3 | 16.1 | 0.00 | 2.06 | 2.06 | 98 | 1004.4 |
| 20260507184512 | 8 | 236 | 8.0 | 14.5 | 0.00 | 2.06 | 2.06 | 99 | 1004.2 |
| 20260507183011 | 8 | 244 | 6.4 | 12.9 | 0.00 | 2.06 | 2.06 | 100 | 1004.1 |
| 20260507181516 | 7 | 237 | 8.0 | 12.9 | 0.00 | 2.06 | 2.06 | 100 | 1004.3 |
| 20260507180019 | 8 | 242 | 6.4 | 12.9 | 0.00 | 2.06 | 2.06 | 100 | 1004.2 |
| 20260507174523 | 8 | 288 | 4.8 | 12.9 | 0.00 | 2.06 | 2.06 | 100 | 1004.0 |
| 20260507173006 | 7 | 277 | 3.2 | 14.5 | 0.00 | 2.06 | 2.06 | 100 | 1004.0 |
| 20260507171513 | 8 | 275 | 6.4 | 14.5 | 0.00 | 2.06 | 2.06 | 100 | 1004.3 |
| 20260507170017 | 8 | 293 | 6.4 | 16.1 | 0.00 | 2.06 | 2.06 | 100 | 1004.2 |
| 20260507164522 | 7 | 303 | 4.8 | 12.9 | 0.00 | 2.06 | 2.06 | 100 | 1004.3 |
| 20260507163025 | 7 | 317 | 9.7 | 16.1 | 0.03 | 2.06 | 2.06 | 100 | 1004.6 |
| 20260507161509 | 7 | 309 | 11.3 | 16.1 | 0.05 | 2.06 | 2.06 | 100 | 1004.6 |
| 20260507160012 | 7 | 291 | 6.4 | 12.9 | 0.08 | 2.06 | 2.06 | 100 | 1005.0 |
| 20260507154519 | 6 | 263 | 3.2 | 16.1 | 0.20 | 2.06 | 2.06 | 100 | 1005.3 |
| 20260507153028 | 7 | 220 | 6.4 | 12.9 | 0.25 | 2.03 | 2.03 | 100 | 1005.1 |
| 20260507151526 | 7 | 240 | 4.8 | 8.0 | 0.25 | 2.01 | 2.01 | 100 | 1004.4 |
| 20260507150010 | 7 | 221 | 1.6 | 8.0 | 0.20 | 1.96 | 1.96 | 100 | 1004.4 |
| 20260507144507 | 7 | 203 | 4.8 | 9.7 | 0.08 | 1.83 | 1.83 | 100 | 1005.0 |
| 20260507143005 | 7 | 236 | 6.4 | 12.9 | 0.10 | 1.78 | 1.78 | 100 | 1004.8 |
| 20260507141504 | 7 | 148 | 3.2 | 4.8 | 0.18 | 1.75 | 1.75 | 100 | 1004.5 |
| 20260507140011 | 7 | 148 | 1.6 | 8.0 | 0.25 | 1.73 | 1.73 | 100 | 1004.3 |
| 20260507134510 | 7 | 148 | 1.6 | 4.8 | 0.38 | 1.73 | 1.73 | 100 | 1004.4 |
| 20260507133010 | 7 | 124 | 6.4 | 12.9 | 0.46 | 1.65 | 1.65 | 100 | 1004.6 |
| 20260507131504 | 7 | 192 | 4.8 | 9.7 | 0.56 | 1.55 | 1.55 | 100 | 1005.5 |
| 20260507130005 | 7 | 147 | 0.0 | 11.3 | 0.66 | 1.47 | 1.47 | 100 | 1005.0 |
| 20260507124514 | 7 | 157 | 6.4 | 16.1 | 0.69 | 1.32 | 1.32 | 100 | 1005.6 |
| 20260507123021 | 7 | 188 | 11.3 | 19.3 | 0.53 | 1.17 | 1.17 | 100 | 1005.7 |
| 20260507121512 | 7 | 191 | 9.7 | 16.1 | 0.36 | 0.99 | 0.99 | 100 | 1005.5 |
| 20260507120005 | 7 | 172 | 12.9 | 24.1 | 0.15 | 0.79 | 0.79 | 100 | 1006.4 |
| 20260507114507 | 7 | 180 | 16.1 | 29.0 | 0.00 | 0.64 | 0.64 | 100 | 1006.0 |
| 20260507113008 | 8 | 153 | 14.5 | 27.4 | 0.00 | 0.64 | 0.64 | 100 | 1005.5 |
| 20260507111514 | 8 | 161 | 14.5 | 30.6 | 0.00 | 0.64 | 0.64 | 100 | 1005.2 |
| 20260507110017 | 8 | 173 | 16.1 | 37.0 | 0.00 | 0.64 | 0.64 | 100 | 1005.6 |
| 20260507104524 | 8 | 169 | 16.1 | 30.6 | 0.00 | 0.64 | 0.64 | 100 | 1005.3 |
| 20260507103008 | 8 | 194 | 19.3 | 35.4 | 0.00 | 0.64 | 0.64 | 100 | 1005.9 |
| 20260507101511 | 8 | 194 | 17.7 | 35.4 | 0.00 | 0.64 | 0.64 | 100 | 1006.0 |
| 20260507100026 | 8 | 155 | 16.1 | 41.8 | 0.00 | 0.64 | 0.64 | 100 | 1006.0 |
| 20260507094520 | 8 | 155 | 20.9 | 35.4 | 0.00 | 0.64 | 0.64 | 100 | 1005.5 |
| 20260507093025 | 8 | 153 | 12.9 | 38.6 | 0.00 | 0.64 | 0.64 | 100 | 1005.2 |
| 20260507091521 | 8 | 165 | 16.1 | 38.6 | 0.00 | 0.64 | 0.64 | 100 | 1005.6 |
| 20260507090017 | 8 | 153 | 19.3 | 30.6 | 0.00 | 0.64 | 0.64 | 100 | 1005.7 |
| 20260507084515 | 9 | 169 | 22.5 | 54.7 | 0.00 | 0.64 | 0.64 | 100 | 1005.8 |
| 20260507083022 | 9 | 151 | 22.5 | 46.7 | 0.00 | 0.64 | 0.64 | 100 | 1005.6 |
| 20260507081531 | 9 | 185 | 27.4 | 53.1 | 0.00 | 0.64 | 0.64 | 99 | 1005.9 |
| 20260507080009 | 10 | 171 | 20.9 | 49.9 | 0.00 | 0.64 | 0.64 | 99 | 1005.8 |
| 20260507074513 | 10 | 160 | 16.1 | 46.7 | 0.03 | 0.64 | 0.64 | 99 | 1005.9 |
| 20260507073018 | 10 | 178 | 22.5 | 45.1 | 0.05 | 0.64 | 0.64 | 99 | 1006.1 |
| 20260507071523 | 10 | 186 | 27.4 | 57.9 | 0.10 | 0.64 | 0.64 | 99 | 1006.1 |
| 20260507070022 | 11 | 180 | 27.4 | 49.9 | 0.18 | 0.61 | 0.61 | 99 | 1006.1 |
| 20260507064526 | 11 | 159 | 27.4 | 49.9 | 0.18 | 0.58 | 0.58 | 98 | 1006.1 |
| 20260507063014 | 11 | 162 | 27.4 | 54.7 | 0.20 | 0.56 | 0.56 | 98 | 1006.3 |
| 20260507061529 | 12 | 167 | 32.2 | 62.8 | 0.20 | 0.51 | 0.51 | 98 | 1006.1 |
| 20260507060003 | 12 | 154 | 33.8 | 66.0 | 0.25 | 0.43 | 0.43 | 98 | 1006.2 |
| 20260507054507 | 13 | 148 | 29.0 | 49.9 | 0.33 | 0.38 | 0.38 | 98 | 1006.7 |
| 20260507053043 | 12 | 123 | 25.7 | 49.9 | 0.33 | 0.36 | 0.36 | 98 | 1006.9 |
| 20260507051517 | 12 | 172 | 30.6 | 53.1 | 0.28 | 0.28 | 0.28 | 97 | 1007.7 |
| 20260507050030 | 13 | 153 | 20.9 | 51.5 | 0.15 | 0.18 | 0.18 | 96 | 1007.7 |
| 20260507044506 | 13 | 142 | 27.4 | 54.7 | 0.05 | 0.05 | 0.05 | 94 | 1008.1 |
| 20260507043006 | 13 | 148 | 24.1 | 46.7 | 0.00 | 0.00 | 0.00 | 95 | 1008.5 |
| 20260507041513 | 13 | 166 | 22.5 | 41.8 | 0.00 | 0.00 | 0.00 | 94 | 1008.7 |
| 20260507040017 | 13 | 155 | 19.3 | 46.7 | 0.00 | 0.00 | 0.00 | 94 | 1009.0 |
| 20260507034503 | 13 | 130 | 20.9 | 49.9 | 0.00 | 0.00 | 0.00 | 94 | 1009.1 |
| 20260507033009 | 13 | 169 | 17.7 | 41.8 | 0.00 | 0.00 | 0.00 | 93 | 1009.3 |
| 20260507031510 | 13 | 129 | 20.9 | 41.8 | 0.00 | 0.00 | 0.00 | 92 | 1009.7 |
| 20260507030016 | 13 | 117 | 22.5 | 49.9 | 0.00 | 0.00 | 0.00 | 91 | 1010.1 |
| 20260507024520 | 13 | 199 | 20.9 | 48.3 | 0.00 | 0.00 | 0.00 | 90 | 1010.7 |
| 20260507023023 | 14 | 146 | 17.7 | 57.9 | 0.00 | 0.00 | 0.00 | 90 | 1011.1 |
| 20260507021506 | 13 | 150 | 20.9 | 46.7 | 0.00 | 0.00 | 0.00 | 90 | 1011.3 |
| 20260507020011 | 13 | 123 | 20.9 | 46.7 | 0.00 | 0.00 | 0.00 | 90 | 1011.5 |
| 20260507014516 | 13 | 144 | 22.5 | 48.3 | 0.00 | 0.00 | 0.00 | 90 | 1011.8 |
| 20260507013021 | 13 | 142 | 25.7 | 45.1 | 0.00 | 0.00 | 0.00 | 90 | 1012.0 |
| 20260507011529 | 13 | 150 | 25.7 | 61.2 | 0.00 | 0.00 | 0.00 | 91 | 1012.3 |
| 20260507010009 | 12 | 157 | 20.9 | 45.1 | 0.00 | 0.00 | 0.00 | 92 | 1012.6 |
| 20260507004515 | 12 | 169 | 22.5 | 53.1 | 0.00 | 0.00 | 0.00 | 91 | 1013.0 |
| 20260507003016 | 13 | 133 | 14.5 | 35.4 | 0.00 | 0.00 | 0.00 | 91 | 1012.9 |
| 20260507001524 | 13 | 105 | 14.5 | 41.8 | 0.00 | 0.00 | 0.00 | 92 | 1012.4 |
| 20260507000027 | 12 | 165 | 19.3 | 46.7 | 0.00 | 0.00 | 0.00 | 92 | 1013.5 |
| 20260506234508 | 12 | 184 | 19.3 | 41.8 | 0.00 | 0.00 | 0.00 | 93 | 1013.7 |
| 20260506233012 | 12 | 168 | 24.1 | 53.1 | 0.00 | 0.00 | 0.00 | 93 | 1013.7 |
| 20260506231518 | 12 | 143 | 22.5 | 45.1 | 0.00 | 0.00 | 0.00 | 92 | 1013.7 |
| 20260506230028 | 12 | 177 | 20.9 | 48.3 | 0.00 | 0.00 | 0.00 | 92 | 1013.9 |
| 20260506224525 | 12 | 160 | 22.5 | 48.3 | 0.00 | 0.00 | 0.00 | 92 | 1013.9 |
| 20260506223008 | 12 | 165 | 27.4 | 45.1 | 0.00 | 0.00 | 0.00 | 92 | 1013.7 |
| 20260506221515 | 12 | 148 | 22.5 | 53.1 | 0.00 | 0.00 | 0.00 | 91 | 1013.8 |
| 20260506220033 | 12 | 142 | 27.4 | 49.9 | 0.00 | 0.00 | 0.00 | 90 | 1014.0 |
| 20260506214523 | 13 | 175 | 25.7 | 53.1 | 0.00 | 0.00 | 0.00 | 90 | 1013.8 |
| 20260506213026 | 13 | 144 | 19.3 | 43.5 | 0.00 | 0.00 | 0.00 | 90 | 1013.9 |
| 20260506211527 | 13 | 140 | 20.9 | 46.7 | 0.00 | 0.00 | 0.00 | 90 | 1014.0 |
| 20260506210020 | 13 | 161 | 20.9 | 57.9 | 0.00 | 0.00 | 0.00 | 88 | 1014.2 |
| 20260506204504 | 13 | 169 | 22.5 | 54.7 | 0.00 | 0.00 | 0.00 | 89 | 1014.4 |
| 20260506203003 | 13 | 134 | 29.0 | 67.6 | 0.00 | 0.00 | 0.00 | 88 | 1014.2 |